Location: Bridgewater Hill Observatory
(43.5992°N, 72.6989°W)
Time: 06:45:05
(UTC-04:00)

Daily predictions for brighter satellites

Satellite Brightness Start Highest point End
(mag) Time Altitude Azimuth Time Altitude Azimuth Time Altitude Azimuth
USA 186 3.3 20:53:50 10° SSW 20:56:40 35° W 20:59:40 10° NNW
Cosmos 1356 Rocket 3.5 20:52:46 10° S 20:56:55 63° E 21:01:10 10° NNE
NOSS 2-2 (D) 3.8 20:56:08 10° SSW 21:00:06 48° ESE 21:04:39 10° NE
Cosmos 1844 Rocket 3.2 20:57:05 10° S 21:02:13 37° ESE 21:07:23 10° NE
Cosmos 2074 Rocket 4.0 20:57:41 10° S 21:03:57 74° E 21:10:14 10° NNE
SL-27 R/B 2.9 21:01:48 10° N 21:05:23 48° ENE 21:08:54 10° SE
Meteor 2-3 Rocket 4.0 20:59:57 10° SSW 21:05:34 73° W 21:11:11 10° N
Cosmos 1825 3.8 21:03:19 10° SE 21:05:57 18° E 21:08:35 10° NE
Cosmos 2082 Rocket 4.3 21:05:09 10° N 21:08:20 15° NE 21:11:30 10° ENE
H-2A R/B 2.1 21:05:04 10° SSE 21:09:22 66° ENE 21:13:36 10° N
COS B Rocket 4.2 21:06:18 10° NNE 21:10:09 33° E 21:13:43 10° SSE
Meteor 1-27 Rocket 4.1 21:07:45 10° N 21:13:09 46° ENE 21:18:26 10° SSE
NOSS 2-2 (C) 3.5 21:10:40 10° SSW 21:14:43 67° ESE 21:19:29 10° NE
Nadezhda 3 Rocket 4.4 21:11:12 10° N 21:17:21 49° ENE 21:23:30 10° SSE
Cosmos 2263 Rocket 3.8 21:12:12 10° SW 21:17:30 40° WNW 21:22:49 10° NNE
Cosmos 1340 Rocket 3.9 21:14:27 10° SSW 21:18:17 47° WNW 21:22:12 10° N
MetOp-A 4.4 21:14:15 10° SE 21:19:25 53° ENE 21:24:37 10° N
CZ-4 SHROUD 4.0 21:17:38 13° SE 21:20:01 36° ENE 21:22:54 10° N
YAOGAN 6 3.4 21:17:30 13° SE 21:20:15 34° ENE 21:23:27 10° N
Cosmos 1408 3.8 21:18:10 12° SE 21:20:46 25° E 21:23:49 10° NE
NOSS 8 (A) 4.5 21:18:04 10° SW 21:21:36 89° SE 21:25:22 10° NE
Envisat 3.0 21:17:56 10° SSE 21:23:01 90° WSW 21:28:08 10° NNW
Cosmos 1624 Rocket 4.0 21:17:45 10° SSW 21:23:01 90° ESE 21:28:22 10° NNE
Cosmos 1782 2.8 21:19:56 10° N 21:23:59 84° E 21:28:00 10° S
BREEZE-M DEB (TANK) 3.6 21:22:57 10° W 21:24:42 23° SSW 21:26:55 12° SSE
Cosmos 1939 Rocket 3.1 21:21:38 10° S 21:25:28 67° W 21:29:23 10° NNW
Atlas Centaur 2 3.2 21:25:03 10° S 21:25:56 11° S 21:26:36 10° SSE
Okean 2 Rocket 4.3 21:25:30 14° SE 21:28:14 24° E 21:31:48 10° NE
H-2A R/B 3.6 21:25:02 11° ESE 21:28:47 22° ENE 21:32:48 10° NNE
Cosmos 1238 Rocket 3.2 21:26:36 10° NNE 21:29:26 32° E 21:31:27 18° SE
Sich 1 Rocket 3.6 21:28:33 10° S 21:33:06 73° E 21:37:41 10° NNE
NOSS 2-2 (E) 3.9 21:29:32 10° SW 21:33:43 75° NW 21:38:44 10° NE
SPOT 5 3.1 21:28:57 10° SSE 21:34:11 84° ENE 21:39:34 10° NNW
Cosmos 1242 Rocket 4.1 21:31:53 10° NNE 21:34:49 22° ENE 21:36:29 17° ESE
ERBS 3.2 21:32:43 10° WNW 21:36:01 41° SW 21:38:24 16° SSE
Cosmos 2341 Rocket 4.2 21:30:21 10° SSE 21:36:26 51° E 21:42:28 10° NNE
PSLV R/B 3.0 21:34:51 18° SSE 21:36:54 70° ENE 21:39:51 10° N
Cosmos 1674 Rocket 3.8 21:32:33 10° NNW 21:37:01 71° W 21:41:25 10° S
Cosmos 1606 2.7 21:34:17 10° N 21:38:14 72° E 21:41:21 15° SSE
Cosmos 407 Rocket 3.5 21:35:14 10° NNW 21:40:31 88° WSW 21:45:03 14° SSE
SPOT 1/Viking Rocket 3.7 21:39:31 16° SSE 21:43:35 58° ENE 21:48:42 10° N
Terra 3.3 21:42:24 15° ESE 21:45:01 23° ENE 21:48:41 10° NNE
Cosmos 1452 Rocket 3.6 21:41:45 10° S 21:46:54 58° ESE 21:52:05 10° NNE
ERS-1 Rocket 4.4 21:44:43 10° SSW 21:49:17 34° W 21:53:53 10° NNW
Cosmos 1782 Rocket 3.8 21:47:18 16° SSE 21:50:37 51° E 21:54:58 10° NNE
Cosmos 1140 Rocket 3.9 21:49:55 10° N 21:54:54 48° ENE 21:57:55 22° SE
Cosmos 962 Rocket 4.4 21:55:01 10° S 22:01:09 78° E 22:07:23 10° N
SL-8 Rocket 4.3 21:57:01 18° SSE 22:01:23 48° E 22:07:21 10° NNE
Okean 3 3.4 21:59:25 10° N 22:03:44 86° E 22:06:18 24° S
USA 234 3.5 21:58:42 10° ENE 22:04:51 42° SE 22:10:57 10° SSW
Cosmos 1975 Rocket 3.0 22:01:02 10° N 22:05:22 75° E 22:07:44 26° SSE
Cosmos 2154 Rocket 4.2 22:01:28 10° SSW 22:07:41 74° W 22:13:54 10° N
Intercosmos 25 3.2 22:07:21 29° SSE 22:08:56 54° E 22:12:04 10° NNE
CARTOSAT-1 4.4 22:07:37 25° ESE 22:09:18 35° ENE 22:13:14 10° N
CZ-4B R/B 3.3 22:04:49 10° NNE 22:09:51 78° ESE 22:13:59 14° S
BREEZE-M DEB (TANK) 4.0 22:08:43 10° W 22:11:39 53° N 22:19:39 10° ENE
SL-8 R/B 3.9 22:09:25 10° WSW 22:14:14 72° NNW 22:19:03 10° ENE
Cosmos 1908 Rocket 4.4 22:11:39 10° SSW 22:15:55 50° WNW 22:20:15 10° N
Meteor 1-14 Rocket 4.5 22:12:57 25° SSE 22:16:05 50° E 22:21:30 10° NNE
Cosmos 1850 Rocket 4.2 22:13:59 10° NNW 22:19:15 60° ENE 22:21:46 30° SE
USA 245 3.6 22:19:18 29° SSW 22:20:33 49° W 22:24:09 10° NNW
Cosmos 1378 Rocket 4.4 22:17:11 10° NNW 22:21:19 46° W 22:24:18 17° SSW
SL-08 RB Rocket 3.7 22:18:58 28° S 22:21:22 85° WSW 22:26:03 10° NNW
ARGOS 3.3 22:19:51 23° S 22:23:19 73° WSW 22:28:41 10° NNW
ATLAS 5 CENTAUR R/B 3.9 22:19:09 10° WNW 22:24:13 28° WSW 22:28:52 13° SSW
NOSS 5 (C) 4.4 22:20:55 10° SW 22:24:15 73° NW 22:27:22 10° NNE
Cosmos 1295 Rocket 4.5 22:21:05 16° S 22:26:22 88° E 22:32:42 10° N
Cosmos 1184 Rocket 3.4 22:24:37 24° SSW 22:26:24 56° WNW 22:29:42 10° N
CZ-4 R/B 3.7 22:22:37 10° NNE 22:27:21 86° ESE 22:30:17 23° SSW
CZ-3C R/B 4.4 22:23:42 10° SW 22:28:14 12° SSW 22:30:32 11° S
Cosmos 1954 Rocket 4.4 22:23:55 10° NNW 22:29:01 57° WSW 22:31:54 25° S
Cosmos 1174 4.3 22:26:08 10° NW 22:29:05 33° WSW 22:29:36 30° SW
Cosmos 2151 Rocket 3.8 22:32:07 40° SE 22:33:20 53° E 22:37:46 10° NNE
Cosmos 2278 Rocket 2.3 22:29:09 10° SSW 22:34:50 81° WNW 22:40:33 10° NNE
Cosmos 1741 Rocket 3.9 22:32:30 10° NNW 22:37:47 83° ENE 22:39:49 38° SSE
Cosmos 1833 Rocket 3.2 22:33:13 10° NNW 22:38:39 47° ENE 22:40:56 31° ESE
Cosmos 2366 rocket 4.0 22:36:39 29° S 22:40:00 69° E 22:46:18 10° NNE
Cosmos 1825 3.9 22:37:56 10° SW 22:41:20 30° WNW 22:44:47 10° NNW
Cosmos 2084 3.3 22:38:35 10° SW 22:42:25 72° NW 22:46:16 10° NE
COSMOS 2487 3.6 22:40:33 10° NW 22:43:54 36° WSW 22:44:48 31° SW
Cosmos 1844 Rocket 4.3 22:40:59 10° WSW 22:46:07 35° NW 22:51:17 10° N
USA 229 DEB 4.0 22:41:32 10° NNW 22:48:37 65° NE 22:52:17 30° ESE
USA 229 4.0 22:41:38 10° NNW 22:48:43 64° NE 22:52:24 30° ESE
APEX 3.3 22:50:10 49° SSW 22:51:13 82° ESE 22:56:12 10° NNE
Cosmos 1812 3.1 22:48:52 10° N 22:52:38 46° ENE 22:52:41 46° E
CZ-4C R/B 3.7 22:51:49 44° SSW 22:52:40 55° W 22:56:38 10° NNW
Cosmos 2082 Rocket 2.2 22:47:43 10° NNW 22:53:27 76° ENE 22:55:25 42° SE
Cosmos 1110 Rocket 4.4 22:59:10 41° ESE 22:59:31 42° ESE 23:04:25 10° NE
Okean 1-7 Rocket 4.3 22:57:23 10° N 23:01:37 39° ENE 23:02:00 38° E
Cosmos 2218 Rocket 4.2 22:59:14 23° SSW 23:03:20 71° W 23:09:46 10° N
Okean 1 Rocket 3.7 23:05:04 41° E 23:05:04 41° E 23:09:13 10° NNE
Cosmos 2297 3.7 23:02:58 26° SSW 23:06:17 87° WNW 23:12:04 10° NNE
H-2A R/B 2.5 23:05:40 34° SSW 23:07:48 56° W 23:13:04 10° NNW
Cosmos 1300 Rocket 3.8 23:08:01 52° E 23:08:03 52° E 23:12:22 10° NNE
Cosmos 1242 Rocket 4.5 23:06:53 10° NW 23:09:47 23° W 23:10:42 21° WSW
Cosmos 1727 Rocket 4.2 23:13:13 10° NNW 23:19:20 66° W 23:21:45 37° SSW
AVUM R/B 4.1 23:18:39 10° NNW 23:21:33 50° NNE 23:21:33 50° NNE
Spot 4 4.2 23:21:25 47° SSW 23:22:28 58° W 23:27:16 10° NNW
Terra 2.6 23:21:17 36° SW 23:22:29 43° W 23:27:01 10° NNW
ASTEX 1 3.3 23:19:52 10° N 23:24:50 85° W 23:25:46 59° SSW
IGS 5A 4.4 23:25:17 36° WSW 23:25:47 38° W 23:29:43 10° NNW
Lacrosse 5 4.0 23:35:24 14° ENE 23:35:24 14° ENE 23:36:19 10° ENE
Okean 1 3.6 23:30:47 10° NNW 23:34:40 63° W 23:34:40 63° W
NOSS 3-1 (C) 4.4 23:31:37 10° NNW 23:38:56 58° NE 23:43:05 30° ESE
Cosmos 2369 Rocket 3.4 23:46:18 27° E 23:46:18 27° E 23:50:14 10° NE
BREEZE-M DEB (TANK) 3.7 23:43:10 10° NW 23:45:43 38° NNE 23:51:58 10° E
USA 234 3.6 23:41:35 10° NE 23:48:02 64° NNW 23:54:27 10° WSW
CZ-4C R/B 4.2 23:55:12 41° NNE 23:55:12 41° NNE 23:58:02 10° N
